Regional Weather Roundup
Issued by NWS Newport/Morehead, NC

Current Version | Previous Version | Graphics & Text | Print | Product List | Glossary On
Versions: 1 2 3 4 5 6 7 8 9 10 11 12 13 14 15 16 17 18 19 20 21 22 23 24 25 26 27 28 29 30 31 32 33 34 35 36 37 38 39 40 41 42 43 44 45 46 47 48 49 50
231 ASUS42 KMHX 281625 RWRMHX WEATHER ROUNDUP FOR EASTERN NORTH CAROLINA NATIONAL WEATHER SERVICE NEWPORT/MOREHEAD CITY NC 1200 PM EDT THU APR 28 2016 NOTE: "FAIR" INDICATES FEW OR NO CLOUDS BELOW 12,000 FEET WITH NO SIGNIFICANT WEATHER AND/OR OBSTRUCTIONS TO VISIBILITY NCZ015>017-031-032-045>047-102-103-281700- NORTH COAST CITY SKY/WX TMP DP RH WIND PRES REMARKS EDENTON MOSUNNY 76 67 72 CALM 29.93F ELIZABETH CITY CLOUDY 62 59 90 NE10 29.96R KITTY HAWK MOSUNNY 68 64 84 E6 29.94S MANTEO NOT AVBL $$ NCZ045>047-081-094-103-104-281700- CENTRAL COAST CITY SKY/WX TMP DP RH WIND PRES REMARKS FRISCO SUNNY 74 68 81 SW13 29.95F SWANQUARTER NOT AVBL $$ NCZ095-097-098-100-101-281700- SOUTHERN COAST CITY SKY/WX TMP DP RH WIND PRES REMARKS BEAUFORT CLOUDY 74 68 81 SW15 29.96F CEDAR ISLAND NOT AVBL JACKSONVILLE CLOUDY 79 66 64 S10 29.93S PINEY ISLAND NOT AVBL WILMINGTON CLOUDY 78 68 71 SW13 29.96F $$ NCZ011>013-027>030-043-044-078>080-089-090>093-098-281700- COASTAL PLAIN CITY SKY/WX TMP DP RH WIND PRES REMARKS AHOSKIE CLOUDY 63 61 94 N9 29.96R CLINTON CLOUDY 77 67 71 SW8 29.95S ELIZABETHTOWN CLOUDY 78 64 61 SW7 29.95F GOLDSBORO CLOUDY 79 70 73 SW9 29.92R GREENVILLE CLOUDY 79 68 69 SW6 29.95S HAVELOCK PTSUNNY 79 67 66 SW14 29.95S KENANSVILLE CLOUDY 78 65 65 SW6 29.95S KINSTON CLOUDY 79 66 65 SW7 29.94S NEW BERN MOSUNNY 81 66 60 W8 29.94F RICHLANDS CLOUDY 79 68 69 S14 29.94F ROCKY MOUNT CLOUDY 76 64 66 VRB3 29.93R WASHINGTON CLOUDY 76 67 72 S6 29.93S WHITEVILLE NOT AVBL $$ AMZ130-135-150-152-154-156-158-170-250-252-270-ANZ085-086-088-633-658-670-281700- MARINE OBSERVATIONS STATION/POSITION TIME TEMP WIND PRES WAVE SWELL AIR SEA DIR/SP/G HT/PER HT/PER (UTC) (F) (DEG/KT/KT) (MB) (FT/S) (FT/S) CHESAPEAKE LIGHT 1600 53 60/ 13/ 13 1015.6 64 E VA BEACH 1550 56 54 60/ 6/ 6 1014.1 3/ 5 3/ 5 DUCK 1600 60 66 100/ 6/ 7 1014.2 2 E DUCK 1511 57 N/A 3/ 5 OREGON INLET 1600 64 62 60/ 8/ 12 1013.9 13E OREGON INLT 1500 61 N/A 3/ 6 3/ 6 HATTERAS CG 1600 73 67 210/ 11/ 16 1014.0 DIAMOND BUOY 1550 72 71 220/ 12/ 14 1014.3 3/ 5 2/11 CAPE LOOKOUT 1600 73 220/ 9/ 11 1014.4 BEAUFORT LAB 1600 73 66 200/ 9/ 11 1013.7 30 SE NEW RVR IN 1525 67 N/A 4/ 6 27 SE WRIGHTSVLE 1608 72 69 230/ 14/ 17 1018.0 5 SE WRIGHTSVLE 1508 70 66 220/ 14/ 16 1015.1 225 S CAPE HAT 1550 71 71 190/ 6/ 8 1018.2 2/ 8 2/ 8 41 SE CHARLESTON 1550 72 72 220/ 10/ 12 1015.3 3/ 5 2/ 5 $$

USA.gov is the U.S. government's official web portal to all federal, state and local government web resources and services.